This demonstration page uses our WeatherBlox Daily Observations layout. Learn more.

Left ArrowRight Arrow

Hourly Observations for March 19, 2018

Temp ( °F °C ) Dew Point ( °F °C ) Humidity (%) Winds ( mph kmh ) Pressure ( in mb ) Visibility ( mi km ) Precip ( " mm )
12:21 am 00:21 Cloudy with Light Rain 36 2.2 35 1.7 97 97 ENE 9 15 29.94 1014 6 10 0.02 0.51
12:36 am 00:36 Cloudy with Light Rain 36 2.2 34 1.1 93 93 ENE 12 19 29.94 1014 6 10 0.03 0.76
12:54 am 00:54 Cloudy with Light Rain 36 2.2 34 1.1 93 93 ENE 12 19 29.88 1012 6 10 0.03 0.76
1:54 am 01:54 Cloudy with Light Rain 36 2.2 34 1.1 93 93 ENE 14 22 29.86 1011 6 10 0.02 0.51
2:33 am 02:33 Cloudy with Light Rain 36 2.2 34 1.1 93 93 ENE 13 20 29.85 1011 7 11 0.02 0.51
2:54 am 02:54 Cloudy with Light Rain 36 2.2 34 1.1 93 93 ENE 10 17 29.83 1010 7 11 0.02 0.51
3:19 am 03:19 Cloudy with Light Rain 36 2.2 34 1.1 93 93 NNE 13 20 29.83 1010 6 10 0.01 0.25
3:37 am 03:37 Cloudy with Rain 36 2.2 34 1.1 93 93 NE 16 26 29.83 1010 5 8 0.03 0.76
3:54 am 03:54 Cloudy with Light Rain 36 2.2 34 1.1 93 93 NE 15 24 29.79 1009 4 6 0.05 1.27
4:54 am 04:54 Cloudy with Light Rain 36 2.2 34 1.1 93 93 NE 16 26 29.79 1009 5 8 0.14 3.56
5:54 am 05:54 Cloudy with Heavy Rain 35 1.7 34 1.1 96 96 NNE 17 28 29.81 1010 4 6 0.06 1.52
6:54 am 06:54 Cloudy 36 2.2 34 1.1 93 93 NNE 21 33 29.83 1010 7 11 0.03 0.76
7:54 am 07:54 Cloudy with Mist and Fog 36 2.2 34 1.1 93 93 NNE 16 26 29.83 1010 6 10 0.00 0.00
8:54 am 08:54 Cloudy with Mist and Fog 37 2.8 35 1.7 93 93 N 20 31 29.84 1011 6 10 0.00 0.00
9:54 am 09:54 Cloudy with Mist and Fog 37 2.8 35 1.7 93 93 N 16 26 29.85 1011 6 10 0.00 0.00
10:20 am 10:20 Cloudy with Mist and Fog 38 3.3 35 1.7 89 89 N 17 28 29.85 1011 6 10 0.00 0.00
10:34 am 10:34 Cloudy with Mist and Fog 38 3.3 36 2.2 93 93 N 17 28 29.88 1012 6 10 0.00 0.00
10:54 am 10:54 Cloudy with Mist and Fog 38 3.3 36 2.2 93 93 N 18 30 29.87 1012 6 10 0.00 0.00
11:54 am 11:54 Cloudy with Mist and Fog 39 3.9 36 2.2 89 89 N 18 30 29.88 1012 6 10 0.00 0.00
12:54 pm 12:54 Cloudy 40 4.4 36 2.2 86 86 N 18 30 29.90 1013 7 11 0.00 0.00
1:54 pm 13:54 Cloudy with Haze 43 6.1 37 2.8 80 80 N 21 33 29.89 1012 6 10 0.00 0.00
2:54 pm 14:54 Cloudy 44 6.7 37 2.8 76 76 N 15 24 29.89 1012 7 11 0.00 0.00
3:54 pm 15:54 Cloudy with Haze 44 6.7 37 2.8 76 76 N 18 30 29.89 1012 6 10 0.00 0.00
4:54 pm 16:54 Cloudy with Haze 44 6.7 37 2.8 76 76 N 18 30 29.89 1012 6 10 0.00 0.00
5:54 pm 17:54 Cloudy with Haze 45 7.2 38 3.3 77 77 N 20 31 29.90 1013 6 10 0.00 0.00
6:54 pm 18:54 Cloudy 43 6.1 37 2.8 80 80 NNW 15 24 29.92 1013 7 11 0.00 0.00
7:54 pm 19:54 Cloudy 43 6.1 37 2.8 80 80 NNW 18 30 29.93 1014 9 14 0.00 0.00
8:54 pm 20:54 Cloudy 42 5.6 37 2.8 82 82 NNW 16 26 29.96 1015 9 14 0.00 0.00
9:54 pm 21:54 Cloudy 41 5 36 2.2 82 82 NNW 20 31 29.98 1015 9 14 0.00 0.00
10:54 pm 22:54 Cloudy with Light Rain 40 4.4 37 2.8 89 89 undefined N/A 30.00 1016 8 13 0.00 0.03
11:12 pm 23:12 Cloudy with Light Rain 40 4.4 37 2.8 89 89 NNW 17 28 30.00 1016 8 13 0.00 0.03
11:49 pm 23:49 Cloudy with Light Rain 39 4 36 2 87 87 N 21 33 30.00 1016 6 10 0.01 0.25
11:54 pm 23:54 Cloudy with Light Rain 39 3.9 36 2.2 89 89 N 20 31 30.00 1016 7 11 0.01 0.25

Powered by AerisWeather